Showing default

COSMOS 2538, 44424

Orbit data source: Space-Track

COSMOS 2538, 44424 is a payload satellite owned by TsNIIKhM (CIS) in SSO that was launched on Wed, 10 Jul 2019 UTC via a SOYUZ-2-1V launch vehicle from the Plesetsk Missile And Space Complex (PKMTR). Payload-class satellites include a variety of spacecraft equipped with specific instruments for various scientific and technological missions. These include communications satellites like Starlink; space stations such as the ISS; scientific satellites like the Hubble; Earth observation satellites from companies like Planet Labs, Umbra, and HawkEye 360; GPS; miniature CubeSats for education and research; and military/defense satellites.

Loading next visibility...
Identifier
44424, 2019-039D
Orbit
SSO
Country
Flag of CISCIS
Related business
Manufacturer
TsNIIKhM
Mission
Operational Defense Technology
Bus & Motor
NIVELIR, Unknown motor
Mass
~100 kg wet, ~100 kg dry
Launch date (UTC)
2019-07-10 (6 years ago)
Launch vehicle
SOYUZ-2-1V
Launch site
Plesetsk Missile And Space Complex (PKMTR)
Object type
Payload
Rocket body
Debris
Shape & HBR
Hex Cyl + 1 Ant, 0.4 m
Radar Cross Section
0.503 m², Medium (>0.1 m² and < 1m²)

Expand to show TLE details & history
Last TLE update: 21 hours ago

TLE from 21 hours ago
0 COSMOS 2538
1 44424U 19039D   25287.92667841  .00008182  00000-0  40723-3 0  9995
2 44424  97.6138   0.9304 0045981 175.0914 185.0779 15.16926241342670
Epoch: 2025-10-14T22:14Z
TLE epoch observation values (Epoch: 2025-10-14T22:14:25.014Z)
Latitude
-0.00007°
Longitude
3.61809°
Altitude
549.797 km
Speed
7.57 km/s
True Right ascension
00h 03m 43s
True Declination
0° 00' 00"
Sunlit
Object was in full shadow at epoch
Visualization orbit readout
Latitude
Unknown
Longitude
Unknown
Altitude
Unknown
Speed
Unknown
Apparent Right ascension
Unknown
Apparent Declination
Unknown
Sunlit
N/A
Visualization observer readout
Local Sidereal Time
13:38:39
Azimuth
Unknown
Elevation
Unknown
Doppler factor
Unknown
Orbital elements
Apogee altitude
543.798 km
Perigee altitude
480.434 km
Semi-major axis
6,890.253 km
Eccentricity
0.0046
Inclination
97.6138°
RAAN
0.9304°
Arg. of periapsis
175.0914°
True anomaly
185.03153°
Mean anomaly
185.0779°
Eccentric anomaly
185.05469°
Mean motion
3.79481 °/min
Orbital period
94.87 mins
BSTAR
0.00040723
Loading maneuver chart data...
Computing Atmospheric mass density...

Documentation

Showing up to 5 results
|